West Newton, PA

7:49 AM EST on February 09, 2016 (GMT -0500)
Rostraver | | Change Station
CLOSE
Current Station
Personal Weather Station
Location: Belle Vernon, PA
Elevation: 1106 ft
Nearby Weather Stations
Active Advisory: Winter Weather Advisory

Elev 1106 ft 40.18 °N, 79.79 °W | Updated 10 seconds ago

Overcast
Overcast
31.1 °F
Feels Like 31 °F
N
0.0
Wind Variable Wind from SSW
Gusts 0.0 mph

Today
High -- | Low -- °F
--% Chance of Precip.
Yesterday
High -- | Low -- °F
Precip. -- in
Pressure 29.53 in
Visibility 0.5 miles
Clouds Scattered Clouds 600 ft
Overcast 1300 ft
Windchill 31 °F
Dew Point 29 °F
Humidity 92%
Rainfall 0.00 in
Snow Depth Not available.
7:19 AM 5:46 PM
New Moon, 1% visible
SPECI KAGC 091239Z 21006KT 1/2SM R28/4500V6000FT -SN FG SCT006 OVC013 00/M01 A2953 RMK AO2 P0001 T00001011
Pressure 29.53 in
Visibility 0.5 miles
Clouds Scattered Clouds 600 ft
Overcast 1300 ft
Windchill 31 °F
Dew Point 29 °F
Humidity 92%
Rainfall 0.00 in
Snow Depth Not available.
7:19 AM 5:46 PM
New Moon, 1% visible
SPECI KAGC 091239Z 21006KT 1/2SM R28/4500V6000FT -SN FG SCT006 OVC013 00/M01 A2953 RMK AO2 P0001 T00001011

10-Day Weather Forecast

Almanac

Astronomy

Feb. 09, 2016 Rise Set
Actual Time
Civil Twilight
Nautical Twilight
Astronomical Twilight
Moon
Length of Visible Light
Length of Day
Tomorrow will be .
, % of the Moon is Illuminated

Today's Extremes

State Highs State Lows

Community

WunderPhotos

Upload Photos

1,891,589 photos uploaded!

WunderBlog® & News

Nearby

Air Quality

  Air Quality AQ Index Pollutant
Not available.

Snow Depth

Station Depth Elevation

Earthquake Activity

City Distance Mag. Time & Date
Minimum magnitude displayed is 2.5.

Coastal Water Temperatures

Place Temperature

Stations

Nearby Weather Stations

Station Location Temp. Windchill Dew Point Humidity Wind Precip. Elev Updated Type
                   

Watches & Warnings

Winter Weather Advisory
Issued: 3:13 AM EST Feb. 9, 2016 – National Weather Service

... Winter Weather Advisory remains in effect until 7 am EST
Wednesday...

* snow accumulation... 3 to 5 inches.

* Period of most intense snow... through this evening.

* Snow ending... snow showers will gradually taper down through
Tuesday night.

* Impacts... hazardous travel conditions are expected due to snow.

Precautionary/preparedness actions...

A Winter Weather Advisory for snow means that periods of snow
will cause primarily travel difficulties. Be prepared for snow
covered roads and limited visibilities... and use caution while
driving.